Preview of NWS' New Version of Forecast
This preview is not operational and should not be used for support decisions.

Regional Weather Roundup (RWR)

Issued by National Weather Service (NWS)

                            
000
ASUS45 KPSR 200910
RWRAZ 

ARIZONA HOURLY REGIONAL WEATHER ROUNDUP
NATIONAL WEATHER SERVICE PHOENIX AZ
200 AM MST WED FEB 20 2019

NOTE: FAIR INDICATES FEW OR NO CLOUDS BELOW 12,000 FEET WITH NO
SIGNIFICANT WEATHER AND/OR OBSTRUCTIONS TO VISIBILITY.

AZZ001>003-036-201000-
NORTHWEST ARIZONA
  
CITY           SKY/WX    TMP DP  RH WIND       PRES   REMARKS
BULLHEAD CITY  CLEAR     37  27  65 E6        30.05  WCI  33          
KINGMAN        CLEAR     27  19  72 NW3       29.99S                  
$$

AZZ004>008-015-016-018-201000-
NORTH CENTRAL ARIZONA
  
CITY           SKY/WX    TMP DP  RH WIND       PRES   REMARKS
GRAND CANYON   PTCLDY    -6 -10  83 CALM      29.87F                  
WILLIAMS       PTCLDY     3   0  85 S9        29.85  WCI -11          
PRESCOTT       PTCLDY    20  12  71 S7        29.95F WCI  11          
FLAGSTAFF      PTCLDY     7   4  87 CALM      29.85F                  
PAYSON         CLEAR     21  16  79 CALM      29.95                   
PAGE           PTCLDY    26  11  52 NW3       29.89R                  
$$

AZZ009>014-017-201000-
NORTHEAST ARIZONA
  
CITY           SKY/WX    TMP DP  RH WIND       PRES   REMARKS
WINSLOW        CLEAR     17  12  80 CALM      29.92F                  
SAINT JOHNS    CLOUDY    26  16  65 W14G24    29.89F WCI  14          
WINDOW ROCK    CLEAR      9   5  84 S9        29.83R WCI  -4          
SHOW LOW       DRIZZLE   18  14  86 S13       29.89  WCI   4          
$$

AZZ540-542>544-546-548-201000-
GREATER PHOENIX AREA
  
CITY           SKY/WX    TMP DP  RH WIND       PRES   REMARKS
PHOENIX        CLEAR     44  16  32 CALM      30.03F                  
BUCKEYE        CLEAR     32  18  55 CALM      30.07                   
LUKE AFB       CLEAR     37  23  58 CALM      30.03F                  
DEER VALLEY    CLEAR     33  26  75 CALM      30.04S                  
SCOTTSDALE     CLEAR     36  27  69 CALM      30.04F                  
MESA-FALCON    CLEAR     37  21  52 SE6       30.04F WCI  32          
MESA-GATEWAY   CLEAR     33  25  72 E6        30.06S WCI  28          
$$

AZZ539-553-201000-
SOUTHWEST MARICOPA COUNTY AND PINAL COUNTY
  
CITY           SKY/WX    TMP DP  RH WIND       PRES   REMARKS
CASA GRANDE    CLEAR     32  23  69 CALM      30.06F                  
GILA BEND      FAIR      35  17  47 S8        30.05F WCI  29          
$$

AZZ503-504-507>509-201000-
SOUTHEAST ARIZONA
  
CITY           SKY/WX    TMP DP  RH WIND       PRES   REMARKS
TUCSON         CLEAR     32  24  72 S6        30.06F WCI  26          
DAVIS-MONTHAN  CLEAR     30  24  76 SE6       30.04  WCI  24          
NOGALES        CLEAR     26  16  65 E5        30.02F WCI  20          
SIERRA VISTA   CLEAR     26  17  69 S7        30.02F WCI  18          
DOUGLAS        CLEAR     18  11  74 NE5       30.03F WCI  11          
SAFFORD        CLEAR     31  20  63 CALM      30.01F                  
$$

AZZ532-201000-
SOUTHWEST ARIZONA
  
CITY           SKY/WX    TMP DP  RH WIND       PRES   REMARKS
YUMA           CLEAR     41  19  41 CALM      30.07F                  
$$

CAZ041-043-047-048-061-525>527-560>570-201000-
SOUTHERN CALIFORNIA
  
CITY           SKY/WX    TMP DP  RH WIND       PRES   REMARKS
DOWNTOWN L.A.  PTCLDY    48  33  56 E3        30.10S                  
L.A. AIRPORT   PTCLDY    44  34  67 E7        30.10S                  
SAN DIEGO      CLEAR     47  31  53 SE7       30.13F                  
BURBANK        MOCLDY    42  33  70 E3        30.08F                  
ONTARIO        PTCLDY    43  31  62 VRB6      30.09F                  
RIVERSIDE      CLEAR     38  31  76 CALM      30.10S                  
PALM SPRINGS   CLEAR     45  28  51 CALM      30.07F                  
EL CENTRO NAS    N/A    N/A N/A N/A MISG      30.08                   
IMPERIAL       CLEAR     37  27  67 SW7       30.06F WCI  32          
BLYTHE         CLEAR     42  15  33 SW6       30.05F                  
NEEDLES        CLEAR     39  26  59 CALM      30.04S                  
$$

NVZ020-UTZ003-201000-
SOUTHERN NEVADA-UTAH
  
CITY           SKY/WX    TMP DP  RH WIND       PRES   REMARKS
LAS VEGAS      PTCLDY    35  20  54 SW3       29.94F                  
SALT LAKE CITY MOCLDY    23  11  60 S13       29.83F WCI  11          
$$

NMZ009-TXZ055-201000-
NEW MEXICO-WEST TEXAS
  
CITY           SKY/WX    TMP DP  RH WIND       PRES   REMARKS
ALBUQUERQUE    CLOUDY    26  16  65 W6        29.85F WCI  19          
EL PASO        PTCLDY    36  13  38 N10       29.97F WCI  28          
$$


........................KEY........................
SKY/WX - SKY CONDITION/WEATHER
TMP    - TEMPERATURE IN FAHRENHEIT
DP     - DEW POINT IN FAHRENHEIT
RH     - RELATIVE HUMIDITY IN PERCENT
WIND   - DIRECTION AND SPEED IN MILES PER HOUR (MPH)
VRB    - VARIABLE WIND DIRECTION
PRES   - MEAN SEA LEVEL PRESSURE IN INCHES OF MERCURY
         F - FALLING PRESSURE   R - RISING PRESSURE
         S - STEADY PRESSURE
VSB    - VISIBILITY IN MILES
HX     - HEAT INDEX IN FAHRENHEIT
WCI    - WIND CHILL INDEX IN FAHRENHEIT
TC     - TEMPERATURE IN CELSIUS WHICH IS ALSO KNOWN AS
         TEMPERATURE IN CENTIGRADE
AFB    - AIR FORCE BASE
         LUKE AFB IS LUKE AIR FORCE BASE
         DAVIS-MONTHAN IS DAVIS-MONTHAN AIR FORCE BASE
NAS    - NAVAL AIR STATION
         EL CENTRO NAS IS EL CENTRO NAVAL AIR STATION
N/A    - NOT AVAILABLE